Time,TemperatureF,DewpointF,PressureIn,WindDirection,WindDirectionDegrees,WindSpeedMPH,WindSpeedGustMPH,Humidity,HourlyPrecipIn,Conditions,Clouds,dailyrainin,SoftwareType,DateUTC
2013-05-17 00:02:00,62.0,41.0,-100.00,ESE,115,10.0,14.0,46,-99.99,,,-99.99,,2013-05-17 07:02:00,
2013-05-17 01:02:00,60.0,42.0,-100.00,North,5,5.0,10.0,51,-99.99,,,-99.99,,2013-05-17 08:02:00,
2013-05-17 01:12:00,60.0,42.0,-100.00,North,5,5.0,10.0,51,-99.99,,,-99.99,,2013-05-17 08:12:00,
2013-05-17 02:02:00,60.0,42.0,-100.00,SSE,150,9.0,13.0,51,-99.99,,,-99.99,,2013-05-17 09:02:00,
2013-05-17 03:03:00,58.0,43.0,-100.00,SSE,160,7.0,14.0,57,-99.99,,,-99.99,,2013-05-17 10:03:00,
2013-05-17 03:12:00,58.0,43.0,-100.00,SSE,160,7.0,14.0,57,-99.99,,,-99.99,,2013-05-17 10:12:00,
2013-05-17 04:02:00,58.0,43.0,-100.00,SSE,165,7.0,12.0,57,-99.99,,,-99.99,,2013-05-17 11:02:00,
2013-05-17 05:03:00,56.0,43.0,-100.00,SSE,155,10.0,13.0,61,-99.99,,,-99.99,,2013-05-17 12:03:00,
2013-05-17 05:12:00,56.0,43.0,-100.00,SSE,155,10.0,13.0,61,-99.99,,,-99.99,,2013-05-17 12:12:00,
2013-05-17 06:03:00,55.0,43.0,-100.00,SSE,155,10.0,15.0,63,-99.99,,,-99.99,,2013-05-17 13:03:00,
2013-05-17 06:10:00,55.0,43.0,-100.00,SSE,150,2.0,9.0,63,-99.99,,,-99.99,,2013-05-17 13:10:00,
2013-05-17 07:02:00,55.0,43.0,-100.00,SSE,150,2.0,9.0,63,-99.99,,,-99.99,,2013-05-17 14:02:00,
2013-05-17 08:03:00,56.0,44.0,-100.00,SSE,165,6.0,10.0,63,-99.99,,,-99.99,,2013-05-17 15:03:00,
2013-05-17 08:10:00,59.0,44.0,-100.00,SSE,150,5.0,8.0,57,-99.99,,,-99.99,,2013-05-17 15:10:00,
2013-05-17 09:00:00,63.0,46.0,-100.00,NNE,20,7.0,12.0,53,-99.99,,,-99.99,,2013-05-17 16:00:00,
2013-05-17 09:07:00,59.0,44.0,-100.00,SSE,150,5.0,8.0,57,-99.99,,,-99.99,,2013-05-17 16:07:00,
2013-05-17 10:10:00,65.0,45.0,-100.00,NNE,20,6.0,10.0,48,-99.99,,,-99.99,,2013-05-17 17:10:00,
2013-05-17 11:00:00,68.0,43.0,-100.00,NNE,30,6.0,9.0,40,-99.99,,,-99.99,,2013-05-17 18:00:00,
2013-05-17 11:08:00,65.0,45.0,-100.00,NNE,20,6.0,10.0,48,-99.99,,,-99.99,,2013-05-17 18:08:00,
2013-05-17 12:10:00,70.0,43.0,-100.00,South,175,3.0,10.0,37,-99.99,,,-99.99,,2013-05-17 19:10:00,
2013-05-17 13:09:00,70.0,43.0,-100.00,South,175,3.0,10.0,37,-99.99,,,-99.99,,2013-05-17 20:09:00,
2013-05-17 13:15:00,68.0,44.0,-100.00,NNE,20,10.0,20.0,41,-99.99,,,-99.99,,2013-05-17 20:15:00,
2013-05-17 14:07:00,68.0,44.0,-100.00,NNE,20,10.0,20.0,41,-99.99,,,-99.99,,2013-05-17 21:07:00,
2013-05-17 14:10:00,66.0,45.0,-100.00,SSE,150,15.0,20.0,46,-99.99,,,-99.99,,2013-05-17 21:10:00,
2013-05-17 15:06:00,66.0,45.0,-100.00,SSE,150,15.0,20.0,46,-99.99,,,-99.99,,2013-05-17 22:06:00,
2013-05-17 16:04:00,66.0,45.0,-100.00,SSE,150,13.0,15.0,46,-99.99,,,-99.99,,2013-05-17 23:04:00,
2013-05-17 16:13:00,66.0,45.0,-100.00,SSE,150,13.0,15.0,46,-99.99,,,-99.99,,2013-05-17 23:13:00,
2013-05-17 17:02:00,67.0,47.0,-100.00,SE,145,9.0,15.0,48,-99.99,,,-99.99,,2013-05-18 00:02:00,
2013-05-17 18:02:00,68.0,49.0,-100.00,SE,145,13.0,18.0,50,-99.99,,,-99.99,,2013-05-18 01:02:00,
2013-05-17 18:13:00,68.0,49.0,-100.00,SE,145,13.0,18.0,50,-99.99,,,-99.99,,2013-05-18 01:13:00,
2013-05-17 19:02:00,67.0,47.0,-100.00,SSE,150,12.0,17.0,48,-99.99,,,-99.99,,2013-05-18 02:02:00,
2013-05-17 20:02:00,65.0,46.0,-100.00,SSE,160,9.0,17.0,50,-99.99,,,-99.99,,2013-05-18 03:02:00,
2013-05-17 20:12:00,65.0,46.0,-100.00,SSE,160,9.0,17.0,50,-99.99,,,-99.99,,2013-05-18 03:12:00,
2013-05-17 21:02:00,64.0,44.0,-100.00,SE,145,12.0,15.0,48,-99.99,,,-99.99,,2013-05-18 04:02:00,
2013-05-17 22:02:00,62.0,41.0,-100.00,SSE,155,10.0,15.0,46,-99.99,,,-99.99,,2013-05-18 05:02:00,
2013-05-17 22:12:00,62.0,41.0,-100.00,SSE,155,10.0,15.0,46,-99.99,,,-99.99,,2013-05-18 05:12:00,
2013-05-17 23:02:00,61.0,39.0,-100.00,SE,145,10.0,18.0,44,-99.99,,,-99.99,,2013-05-18 06:02:00,
2013-05-17 23:10:00,60.0,38.0,-100.00,SE,145,12.0,18.0,43,-99.99,,,-99.99,,2013-05-18 06:10:00,